SCP
0 0 0 -0 -0 -0 0 -0 -0 -0 -0 -0 -0 -0 -0 -1 -1 -0 -0 -0 -0 -0 -0 -0 -0 -0 -0 -0 -0 -0 -0 -0
0 0 -0 -0 -0 0 0 0 0 -0 -0 -0 0 -0 -0 -1 -0 -0 -0 -0 -0 -0 -0 -0 -0 -0 -0 -0 -0 -0 -0 -0
0 0 -0 -0 0 0 0 0 0 -0 -0 -0 -0 -0 -0 -0 -0 -1 -0 -0 -0 -0 -0 -0 -0 -0 -0 -0 -0 0 0 0
0 0 -0 -0 0 0 0 0 0 -0 -0 -0 -0 -0 -0 0 -0 -1 -0 -0 0 0 -0 -0 -0 -0 0 0 0 0 0 0
0 -0 -0 0 0 0 0 0 0 0 0 0 -0 -0 0 0 -0 -1 -0 -0 0 0 0 0 0 0 0 0 0 0 0 0
0 0 -0 -0 0 0 0 0 0 0 0 0 -0 -0 0 0 -0 -0 -0 -0 -0 0 0 0 0 0 0 0 0 0 0 0
0 0 -0 -0 0 0 0 0 0 0 0 -0 -0 0 -0 0 0 0 -0 -0 -0 0 0 0 -0 0 0 0 0 0 0 0
0 0 -0 0 0 0 0 0 0 0 0 0 0 0 -0 0 0 0 -0 -1 -1 -0 0 -0 0 -0 -0 0 0 0 0 0
0 -0 0 0 0 0 0 0 0 0 0 0 0 -0 -0 0 0 0 -0 0 0 0 0 -0 0 -0 -0 -0 -0 0 0 0
0 0 0 0 0 0 0 0 0 0 0 0 0 0 0 -0 0 0 0 1 0 1 0 0 0 0 0 0 0 0 0 0
0 0 0 0 0 0 0 0 0 0 0 0 0 0 -0 -0 0 0 0 1 0 0 0 0 0 0 0 0 0 0 0 0
0 0 0 0 0 0 0 0 0 0 0 0 0 0 0 0 0 0 0 0 0 0 0 0 0 0 0 0 0 0 0 0
0 0 0 0 0 0 0 0 0 0 0 0 0 0 0 0 0 0 0 0 0 0 0 0 0 0 0 0 0 0 0 0
0 0 0 0 0 0 0 0 0 0 0 0 0 0 0 0 0 0 0 0 0 0 0 0 0 0 0 0 0 0 0 0
0 0 0 0 0 0 0 0 0 0 0 0 0 0 0 0 0 0 0 0 0 0 0 0 0 0 0 0 0 0 0 0
0 -0 0 0 0 0 0 0 0 0 0 0 0 0 0 0 0 0 0 0 0 0 0 0 0 0 0 0 0 0 0 0
0 0 0 0 0 0 0 0 0 0 0 0 0 0 0 0 0 0 0 0 0 0 0 0 0 0 0 0 0 0 0 0
0 0 -0 0 0 0 0 -0 0 0 0 0 0 0 0 0 0 0 0 0 0 0 0 0 0 0 0 0 0 0 0 0
0 0 0 0 0 0 0 0 0 0 0 0 0 0 0 0 0 0 0 0 0 0 0 0 0 0 0 0 0 0 0 0
0 0 0 0 0 0 0 0 0 0 0 0 0 0 0 0 0 0 0 0 0 0 0 0 1 0 0 0 0 0 0 0
Wind_Speed_500mb
11 25 30 28 22 37 36 46 37 49 46 22 25 24 36 42 36 39 31 34 29 27 27 25 23 21 20 18 17 17 15 13
18 35 42 42 20 34 28 40 32 42 29 24 23 30 37 39 36 40 28 36 30 27 25 24 22 19 17 16 15 14 12 11
30 37 46 37 25 22 24 22 33 41 30 28 34 41 39 38 39 40 25 32 30 27 25 24 22 20 17 15 14 13 12 12
30 40 43 40 21 19 22 25 39 53 44 27 37 38 37 36 42 39 26 29 27 25 21 20 19 17 15 14 12 10 9 9
38 42 42 34 20 21 24 26 27 50 33 34 40 38 40 39 39 38 10 23 28 24 21 19 17 15 12 11 10 9 8 5
39 36 44 30 30 36 31 25 33 46 29 43 48 45 43 39 35 30 32 17 15 18 15 14 16 14 11 8 7 5 4 3
41 42 41 28 22 32 27 40 28 9 49 54 48 45 41 42 37 40 43 30 32 32 16 10 13 11 10 9 7 3 1 0
43 41 36 34 24 30 31 35 33 29 57 52 48 42 45 34 40 35 37 56 38 34 22 18 14 8 17 20 14 11 8 10
48 55 45 26 30 34 36 28 38 40 44 48 46 43 39 29 44 36 35 35 36 29 23 20 15 13 11 12 9 3 8 11
59 64 29 35 34 34 33 28 44 43 45 46 46 42 38 34 35 35 40 51 39 36 42 29 18 17 22 10 11 8 12 7
59 53 22 39 45 32 40 42 54 58 50 46 43 41 37 33 29 44 38 31 29 29 41 40 31 26 24 10 15 16 9 3
50 56 22 38 41 43 31 30 36 55 49 45 41 40 32 29 34 34 40 32 26 32 32 34 27 19 13 25 18 10 7 2
37 57 32 42 42 47 38 42 38 45 44 42 39 38 37 31 29 42 43 42 40 31 29 24 17 19 19 22 13 13 7 3
33 41 30 42 37 42 42 41 39 48 46 43 41 41 40 38 39 42 46 48 42 27 26 21 25 26 22 29 16 10 4 6
40 36 37 39 29 40 50 38 34 41 46 46 43 40 44 42 45 48 52 54 41 36 27 33 31 34 27 25 16 13 7 8
36 38 41 42 37 33 41 56 53 50 52 50 51 51 47 45 47 51 52 51 48 46 35 36 38 32 20 20 19 7 5 10
33 49 37 44 36 37 47 44 59 53 51 56 54 52 54 51 54 57 56 55 57 51 47 45 43 33 23 12 17 13 14 14
42 36 42 39 40 37 33 43 44 55 56 49 59 57 61 61 63 63 62 60 62 58 52 49 44 28 25 24 19 20 20 18
46 35 37 34 31 23 29 49 55 53 49 53 56 63 62 70 70 67 69 68 65 64 58 52 47 46 45 41 26 12 8 9
37 33 33 32 28 32 39 42 40 50 60 63 63 57 71 74 79 74 71 69 64 64 63 56 50 50 43 33 14 16 24 21
Wind_Direction_500mb
229 248 254 275 348 100 107 114 109 80 83 69 93 81 108 120 119 117 129 137 133 127 130 134 136 138 143 146 147 148 148 149
255 266 258 261 54 90 113 124 122 98 90 93 94 110 123 129 128 130 132 135 132 126 123 124 129 137 145 154 162 171 177 179
256 251 269 277 109 122 141 143 136 115 101 104 112 122 128 132 137 131 133 136 135 133 131 129 128 132 140 152 167 181 193 204
252 248 254 270 144 141 162 164 123 104 117 113 129 129 135 136 139 133 134 143 141 137 135 134 134 134 134 135 141 154 177 200
262 271 265 242 151 176 193 152 134 132 118 135 144 139 139 139 129 131 150 159 146 144 145 146 146 146 147 148 149 147 148 160
268 267 275 266 167 185 196 167 145 130 132 156 146 146 145 148 147 151 153 123 109 133 130 160 156 152 153 154 151 153 157 164
256 264 273 259 175 178 199 126 131 93 146 145 151 153 157 153 156 157 157 163 153 139 107 106 153 145 149 147 146 136 206 191
256 269 270 268 187 184 123 133 135 114 127 144 156 162 167 148 166 156 164 151 149 138 106 142 134 23 96 80 92 90 62 47
259 255 316 278 193 193 164 168 153 154 149 157 164 171 175 163 160 155 140 149 146 137 112 161 119 90 80 61 40 33 165 152
259 275 307 294 286 233 176 196 177 177 165 169 174 173 174 183 165 170 160 135 145 150 156 164 160 158 159 165 162 164 261 195
254 269 268 289 279 256 181 219 186 167 167 178 179 179 180 179 159 149 151 151 153 167 179 182 156 173 176 160 160 215 239 345
253 264 230 260 264 250 192 194 153 154 169 182 188 181 174 160 156 160 171 164 181 198 175 170 182 202 192 181 193 163 204 22
243 254 245 248 251 248 209 173 175 163 176 188 194 186 173 172 169 167 163 168 182 193 172 192 188 161 163 124 162 158 227 144
239 252 237 242 241 249 177 176 190 174 184 197 194 193 175 177 175 175 168 182 187 174 189 179 177 168 164 154 159 175 172 339
248 242 219 224 230 255 197 182 200 194 194 203 200 196 179 180 178 179 178 193 184 185 196 180 178 166 175 168 160 188 162 239
252 235 230 218 217 254 223 191 196 205 200 207 203 194 184 183 183 185 188 200 173 190 194 189 175 176 172 172 177 184 197 273
210 250 237 209 208 209 255 240 186 196 203 203 204 198 191 187 186 185 193 199 183 190 197 194 186 177 185 184 177 199 250 275
265 228 243 204 215 232 221 249 204 193 203 211 203 201 190 186 187 190 194 205 191 194 200 198 192 164 199 176 205 189 243 291
261 271 266 260 227 223 246 233 245 216 213 218 217 199 195 188 187 191 197 209 202 198 205 199 193 189 194 197 215 234 237 332
267 252 256 222 244 237 240 252 234 242 202 211 214 212 195 191 189 191 200 209 212 206 211 200 187 213 209 212 192 190 197 247
Wind_Speed_850mb
11 25 30 28 22 37 36 46 37 49 46 22 25 24 36 42 36 39 31 34 29 27 27 25 23 21 20 18 17 17 15 13
18 35 42 42 20 34 28 40 32 42 29 24 23 30 37 39 36 40 28 36 30 27 25 24 22 19 17 16 15 14 12 11
30 37 46 37 25 22 24 22 33 41 30 28 34 41 39 38 39 40 25 32 30 27 25 24 22 20 17 15 14 13 12 12
30 40 43 40 21 19 22 25 39 53 44 27 37 38 37 36 42 39 26 29 27 25 21 20 19 17 15 14 12 10 9 9
38 42 42 34 20 21 24 26 27 50 33 34 40 38 40 39 39 38 10 23 28 24 21 19 17 15 12 11 10 9 8 5
39 36 44 30 30 36 31 25 33 46 29 43 48 45 43 39 35 30 32 17 15 18 15 14 16 14 11 8 7 5 4 3
41 42 41 28 22 32 27 40 28 9 49 54 48 45 41 42 37 40 43 30 32 32 16 10 13 11 10 9 7 3 1 0
43 41 36 34 24 30 31 35 33 29 57 52 48 42 45 34 40 35 37 56 38 34 22 18 14 8 17 20 14 11 8 10
48 55 45 26 30 34 36 28 38 40 44 48 46 43 39 29 44 36 35 35 36 29 23 20 15 13 11 12 9 3 8 11
59 64 29 35 34 34 33 28 44 43 45 46 46 42 38 34 35 35 40 51 39 36 42 29 18 17 22 10 11 8 12 7
59 53 22 39 45 32 40 42 54 58 50 46 43 41 37 33 29 44 38 31 29 29 41 40 31 26 24 10 15 16 9 3
50 56 22 38 41 43 31 30 36 55 49 45 41 40 32 29 34 34 40 32 26 32 32 34 27 19 13 25 18 10 7 2
37 57 32 42 42 47 38 42 38 45 44 42 39 38 37 31 29 42 43 42 40 31 29 24 17 19 19 22 13 13 7 3
33 41 30 42 37 42 42 41 39 48 46 43 41 41 40 38 39 42 46 48 42 27 26 21 25 26 22 29 16 10 4 6
40 36 37 39 29 40 50 38 34 41 46 46 43 40 44 42 45 48 52 54 41 36 27 33 31 34 27 25 16 13 7 8
36 38 41 42 37 33 41 56 53 50 52 50 51 51 47 45 47 51 52 51 48 46 35 36 38 32 20 20 19 7 5 10
33 49 37 44 36 37 47 44 59 53 51 56 54 52 54 51 54 57 56 55 57 51 47 45 43 33 23 12 17 13 14 14
42 36 42 39 40 37 33 43 44 55 56 49 59 57 61 61 63 63 62 60 62 58 52 49 44 28 25 24 19 20 20 18
46 35 37 34 31 23 29 49 55 53 49 53 56 63 62 70 70 67 69 68 65 64 58 52 47 46 45 41 26 12 8 9
37 33 33 32 28 32 39 42 40 50 60 63 63 57 71 74 79 74 71 69 64 64 63 56 50 50 43 33 14 16 24 21
Wind_Direction_850mb
229 248 254 275 348 100 107 114 109 80 83 69 93 81 108 120 119 117 129 137 133 127 130 134 136 138 143 146 147 148 148 149
255 266 258 261 54 90 113 124 122 98 90 93 94 110 123 129 128 130 132 135 132 126 123 124 129 137 145 154 162 171 177 179
256 251 269 277 109 122 141 143 136 115 101 104 112 122 128 132 137 131 133 136 135 133 131 129 128 132 140 152 167 181 193 204
252 248 254 270 144 141 162 164 123 104 117 113 129 129 135 136 139 133 134 143 141 137 135 134 134 134 134 135 141 154 177 200
262 271 265 242 151 176 193 152 134 132 118 135 144 139 139 139 129 131 150 159 146 144 145 146 146 146 147 148 149 147 148 160
268 267 275 266 167 185 196 167 145 130 132 156 146 146 145 148 147 151 153 123 109 133 130 160 156 152 153 154 151 153 157 164
256 264 273 259 175 178 199 126 131 93 146 145 151 153 157 153 156 157 157 163 153 139 107 106 153 145 149 147 146 136 206 191
256 269 270 268 187 184 123 133 135 114 127 144 156 162 167 148 166 156 164 151 149 138 106 142 134 23 96 80 92 90 62 47
259 255 316 278 193 193 164 168 153 154 149 157 164 171 175 163 160 155 140 149 146 137 112 161 119 90 80 61 40 33 165 152
259 275 307 294 286 233 176 196 177 177 165 169 174 173 174 183 165 170 160 135 145 150 156 164 160 158 159 165 162 164 261 195
254 269 268 289 279 256 181 219 186 167 167 178 179 179 180 179 159 149 151 151 153 167 179 182 156 173 176 160 160 215 239 345
253 264 230 260 264 250 192 194 153 154 169 182 188 181 174 160 156 160 171 164 181 198 175 170 182 202 192 181 193 163 204 22
243 254 245 248 251 248 209 173 175 163 176 188 194 186 173 172 169 167 163 168 182 193 172 192 188 161 163 124 162 158 227 144
239 252 237 242 241 249 177 176 190 174 184 197 194 193 175 177 175 175 168 182 187 174 189 179 177 168 164 154 159 175 172 339
248 242 219 224 230 255 197 182 200 194 194 203 200 196 179 180 178 179 178 193 184 185 196 180 178 166 175 168 160 188 162 239
252 235 230 218 217 254 223 191 196 205 200 207 203 194 184 183 183 185 188 200 173 190 194 189 175 176 172 172 177 184 197 273
210 250 237 209 208 209 255 240 186 196 203 203 204 198 191 187 186 185 193 199 183 190 197 194 186 177 185 184 177 199 250 275
265 228 243 204 215 232 221 249 204 193 203 211 203 201 190 186 187 190 194 205 191 194 200 198 192 164 199 176 205 189 243 291
261 271 266 260 227 223 246 233 245 216 213 218 217 199 195 188 187 191 197 209 202 198 205 199 193 189 194 197 215 234 237 332
267 252 256 222 244 237 240 252 234 242 202 211 214 212 195 191 189 191 200 209 212 206 211 200 187 213 209 212 192 190 197 247